Jackson, WY

10:28 PM MST on December 13, 2019 (GMT -0700)
Jackson Hole

Weather History for KJAC - October, 2019

Change the Weather History Date:

Sunday, October 27, 2019

  Actual Average Record
Temperature  
Mean Temperature 18 °F -  
Max Temperature 28 °F 50 °F 65 °F (1977)
Min Temperature 9 °F 18 °F 1 °F (1970)
Degree Days  
Heating Degree Days 46    
Moisture  
Dew Point 5 °F    
Average Humidity 56    
Maximum Humidity 74    
Minimum Humidity 29    
Precipitation  
Precipitation 0.00 in - - ()
Sea Level Pressure  
Sea Level Pressure 30.19 in    
Wind  
Wind Speed 13 mph ()    
Max Wind Speed 23 mph    
Max Gust Speed 26 mph    
Visibility 9.8 miles    
Events Snow    
Averages and records for this station are not official NWS values.
T = Trace of Precipitation, MM = Missing Value Source: Averaged Metar Reports

Daily Weather History Graph

Daily Weather History Graph

Search for Another Location

Airport or City:

Astronomy

Oct. 27, 2019 Rise Set
Actual Time 7:51 AM MDT 6:20 PM MDT
Civil Twilight 7:22 AM MDT 6:50 PM MDT
Nautical Twilight 6:48 AM MDT 7:24 PM MDT
Astronomical Twilight 6:15 AM MDT 7:57 PM MDT
Moon 7:01 AM MDT (10/27) 6:34 PM MDT (10/27)
Length of Visible Light 11h 28m
Length of Day
10h 29m
Waning Crescent, 0% of the Moon is Illuminated
Oct 27
Waning Crescent
Oct 27
New
Nov 4
First Quarter
Nov 12
Full
Nov 19
Last Quarter

Hourly Weather History & Observations

Time (MDT) Temp. Windchill Dew Point Humidity Pressure Visibility Wind Dir Wind Speed Gust Speed Precip Events Conditions
12:52 AM 21.2 °F 6.8 °F 14.0 °F 74% 29.97 in 8.0 mi NNE 17.3 mph 25.3 mph 0.00 in Snow Light Snow
12:56 AM 21.0 °F 6.6 °F 12.9 °F 71% 30.08 in 9.0 mi NNE 17.3 mph - 0.00 in Snow Light Snow
1:14 AM 21.2 °F 6.8 °F 12.2 °F 68% 29.97 in 9.0 mi NNE 17.3 mph 24.2 mph 0.00 in Snow Light Snow
1:56 AM 21.0 °F 8.1 °F 12.0 °F 68% 30.11 in 10.0 mi NNE 13.8 mph - 0.00 in   Scattered Clouds
2:56 AM 21.0 °F 8.6 °F 10.9 °F 65% 30.12 in 10.0 mi NE 12.7 mph - N/A   Mostly Cloudy
3:56 AM 19.9 °F 8.6 °F 9.0 °F 62% 30.12 in 10.0 mi NE 10.4 mph - N/A   Clear
4:56 AM 18.0 °F 4.8 °F 8.1 °F 65% 30.12 in 10.0 mi NNE 12.7 mph - N/A   Clear
5:56 AM 18.0 °F 4.8 °F 9.0 °F 68% 30.14 in 10.0 mi NNE 12.7 mph - N/A   Scattered Clouds
6:56 AM 17.1 °F 3.0 °F 10.0 °F 74% 30.17 in 10.0 mi NNE 13.8 mph - N/A   Scattered Clouds
7:56 AM 16.0 °F -0.4 °F 9.0 °F 74% 30.19 in 10.0 mi NNE 18.4 mph - N/A   Clear
8:56 AM 18.0 °F 0.9 °F 9.0 °F 68% 30.22 in 10.0 mi NNE 21.9 mph 26.5 mph N/A   Clear
9:56 AM 21.0 °F 4.6 °F 8.1 °F 57% 30.22 in 10.0 mi NNE 23.0 mph - N/A   Clear
10:56 AM 23.0 °F 9.6 °F 8.1 °F 53% 30.23 in 10.0 mi NNE 16.1 mph 24.2 mph N/A   Partly Cloudy
12:56 PM 26.1 °F 13.6 °F 3.0 °F 37% 30.22 in 10.0 mi NNE 16.1 mph 23.0 mph N/A   Clear
1:56 PM 26.1 °F 14.5 °F 1.0 °F 34% 30.20 in 10.0 mi NNE 13.8 mph 23.0 mph N/A   Scattered Clouds
2:56 PM 27.0 °F 13.5 °F -2.0 °F 29% 30.18 in 10.0 mi NNE 19.6 mph 25.3 mph N/A   Clear
3:56 PM 28.0 °F 16.1 °F -0.9 °F 29% 30.19 in 10.0 mi NNE 16.1 mph - N/A   Clear
4:56 PM 27.0 °F 15.2 °F -0.9 °F 30% 30.21 in 10.0 mi NNE 15.0 mph - N/A   Clear
5:56 PM 24.1 °F 11.5 °F -0.0 °F 35% 30.23 in 10.0 mi NNE 15.0 mph - N/A   Clear
6:56 PM 18.0 °F 5.4 °F -0.0 °F 45% 30.28 in 10.0 mi NNE 11.5 mph - N/A   Clear
7:56 PM 16.0 °F 3.6 °F -0.0 °F 49% 30.32 in 10.0 mi NNE 10.4 mph - N/A   Clear
8:56 PM 15.1 °F 3.3 °F -0.0 °F 51% 30.33 in 10.0 mi NE 9.2 mph - N/A   Clear
9:56 PM 12.9 °F 5.2 °F -0.0 °F 56% 30.34 in 10.0 mi NE 4.6 mph - N/A   Clear
10:56 PM 9.0 °F -3.2 °F -0.0 °F 67% 30.35 in 10.0 mi NNE 8.1 mph - N/A   Clear
11:56 PM 9.0 °F -3.2 °F 1.0 °F 70% 30.35 in 10.0 mi NNE 8.1 mph - N/A   Clear